CSG-3

Last updated on Mon Jun 22 2026 00:02:52 GMT+0000 (Coordinated Universal Time)

1 67304U 26001A 26172.51971248 .00000199 00000+0 31497-4 0 9990 2 67304 97.8888 356.0587 0001414 95.7502 264.3872 14.82156102 25102
UTC large
Height (km)
Speed (km/s)
/
Latitude / Longitude
Inclination (degrees)
Orbital Period (minutes)
Azimuth
Elevation
Range (km)
Doppler Factor

Next 0 passes for location: London (51.5072 / 0.1276)

No passes found over London.
CSG-3